Starlink 11186

operational
NORAD ID: 60070 Int'l Des: 2024-113 Owner: SPXS Country: US Constellation: starlink
LEOCIRCULAR

About Starlink 11186

Description loading...

Live Position

Loading 3D Globe...

Upcoming Passes

Altitude History

Altitude vs Time

uPlot chart will show altitude changes over time

Two-Line Element Set

1 60070U 24113M 25350.95626592 -.00002485 00000-0 -15656-4 0 9991
2 60070 53.1589 239.2999 0001396 87.8608 272.2569 15.69703274 86972
Epoch: Dec 16, 2025 • Age: 10 hours

Current Status

Altitude 360.0 km
Velocity 7.70 km/s
Sub-Earth Point 21.85°N, 177.81°W
Launch Date Jun 19, 2024
Age 1.4 years
Type internet

Technical Details

Classification Payload
Mass 960.00 kg
Dry Mass 910.00 kg
Total Mass 960.00 kg
Length 0.30 m
Diameter 4.10 m
Span 29.00 m
Shape Box + pan
Manufacturer SPXS
Bus Type Starlink V2MD
Phase Status In Orbit
Owner/State SPXS/US

Large Constellations

Loading constellations...